Cold Bay, AK

1:39 AM AKST on February 28, 2017 (GMT -0900)
Cold Bay

Weather History for PACD - January, 2014

Change the Weather History Date:

Saturday, January 18, 2014

  Actual Average Record
Temperature  
Mean Temperature 33 °F 28 °F  
Max Temperature 38 °F 33 °F 47 °F (1950)
Min Temperature 28 °F 23 °F 2 °F (2009)
Degree Days  
Heating Degree Days 32 37  
Month to date heating degree days 499 658  
Since 1 July heating degree days 3845 4729  
Cooling Degree Days 0 0  
Month to date cooling degree days 0 0  
Year to date cooling degree days 0 0  
Moisture  
Dew Point 24 °F    
Average Humidity 66    
Maximum Humidity 82    
Minimum Humidity 41    
Precipitation  
Precipitation T in 0.09 in 0.44 in (1979)
Month to date precipitation 1.77 1.86  
Year to date precipitation 1.77 1.86  
Snow  
Snow T in 0.40 in 6.30 in (1979)
Month to date snowfall 1.2 8.1  
Since 1 July snowfall 12.1 33.3  
Snow Depth T in    
Sea Level Pressure  
Sea Level Pressure 29.26 in    
Wind  
Wind Speed 0 mph (South)    
Max Wind Speed 31 mph    
Max Gust Speed 39 mph    
Visibility 10 miles    
Events      
T = Trace of Precipitation, MM = Missing Value Source: NWS Daily Summary

Daily Weather History Graph

Daily Weather History Graph

Search for Another Location

Airport or City:

Trip Planner

Search our weather history database for the weather conditions in past years. The results will help you decide how hot, cold, wet, or windy it might be!

Date:

Astronomy

Jan. 18, 2014 Rise Set
Actual Time 10:03 AM AKST 5:59 PM AKST
Civil Twilight 9:21 AM AKST 6:42 PM AKST
Nautical Twilight 8:35 AM AKST 7:28 PM AKST
Astronomical Twilight 7:51 AM AKST 8:11 PM AKST
Moon 9:30 PM AKST (1/18) 10:35 AM AKST (1/18)
Length of Visible Light 9h 21m
Length of Day
7h 55m
Waning Gibbous, 94% of the Moon is Illuminated
Jan 18
Waning Gibbous
Jan 23
Last Quarter
Jan 30
New
Feb 6
First Quarter
Feb 14
Full

Hourly Weather History & Observations

Time (AKST) Temp. Windchill Dew Point Humidity Pressure Visibility Wind Dir Wind Speed Gust Speed Precip Events Conditions
12:53 AM 32.0 °F 19.5 °F 23.0 °F 69% 28.94 in 10.0 mi WSW 21.9 mph 27.6 mph N/A   Mostly Cloudy
1:53 AM 32.0 °F 19.8 °F 21.9 °F 66% 28.97 in 10.0 mi SW 20.7 mph 31.1 mph N/A   Mostly Cloudy
2:53 AM 32.0 °F 20.5 °F 21.0 °F 64% 29.01 in 10.0 mi WSW 18.4 mph 29.9 mph N/A   Mostly Cloudy
3:53 AM 30.9 °F 19.8 °F 21.9 °F 69% 29.05 in 10.0 mi WSW 16.1 mph - N/A   Mostly Cloudy
4:53 AM 30.0 °F 25.2 °F 19.9 °F 66% 29.08 in 10.0 mi SW 4.6 mph - N/A   Scattered Clouds
5:53 AM 32.0 °F 21.2 °F 19.0 °F 59% 29.11 in 10.0 mi SSW 16.1 mph - N/A   Scattered Clouds
6:53 AM 33.1 °F 22.2 °F 19.0 °F 56% 29.14 in 10.0 mi SSW 17.3 mph 27.6 mph N/A   Scattered Clouds
7:53 AM 33.1 °F 20.6 °F 19.9 °F 59% 29.16 in 10.0 mi SSW 23.0 mph 31.1 mph N/A   Scattered Clouds
8:53 AM 35.1 °F 23.5 °F 19.9 °F 54% 29.19 in 10.0 mi SSW 21.9 mph 31.1 mph N/A   Partly Cloudy
9:53 AM 35.1 °F 24.5 °F 19.9 °F 54% 29.24 in 10.0 mi SSW 18.4 mph 32.2 mph N/A   Partly Cloudy
10:53 AM 35.1 °F 26.4 °F 23.0 °F 61% 29.28 in 10.0 mi SSW 12.7 mph 29.9 mph N/A   Partly Cloudy
11:40 AM 33.8 °F 23.9 °F 26.6 °F 75% 29.30 in 10.0 mi SSE 15.0 mph - 0.00 in   Scattered Clouds
11:53 AM 33.1 °F 26.9 °F 28.0 °F 82% 29.31 in 10.0 mi SE 6.9 mph - 0.00 in   Scattered Clouds
12:53 PM 37.9 °F 28.5 °F 23.0 °F 55% 29.34 in 10.0 mi SSW 17.3 mph 26.5 mph N/A   Scattered Clouds
1:53 PM 37.0 °F 28.5 °F 27.0 °F 67% 29.36 in 10.0 mi SSE 13.8 mph - N/A   Partly Cloudy
2:53 PM 37.0 °F 27.4 °F 28.0 °F 70% 29.35 in 10.0 mi South 17.3 mph 26.5 mph N/A   Partly Cloudy
3:53 PM 36.0 °F 30.3 °F 30.0 °F 79% 29.38 in 10.0 mi ESE 6.9 mph - 0.00 in   Partly Cloudy
4:53 PM 37.0 °F 29.8 °F 27.0 °F 67% 29.39 in 10.0 mi SSW 10.4 mph 17.3 mph N/A   Clear
5:53 PM 34.0 °F 25.5 °F 28.0 °F 79% 29.41 in 10.0 mi SE 11.5 mph - N/A   Clear
6:53 PM 34.0 °F 25.0 °F 28.0 °F 79% 29.42 in 10.0 mi SE 12.7 mph - N/A   Clear
7:53 PM 33.1 °F 24.9 °F 27.0 °F 78% 29.43 in 10.0 mi SSE 10.4 mph - N/A   Partly Cloudy
8:53 PM 30.9 °F 24.3 °F 25.0 °F 79% 29.43 in 10.0 mi SE 6.9 mph - N/A   Clear
9:53 PM 34.0 °F 27.2 °F 27.0 °F 75% 29.43 in 10.0 mi SE 8.1 mph - N/A   Clear
10:53 PM 32.0 °F - 24.1 °F 73% 29.42 in 10.0 mi Calm Calm - N/A   Clear
11:53 PM 36.0 °F 29.6 °F 27.0 °F 70% 29.42 in 10.0 mi East 8.1 mph - N/A   Clear